Location: Unspecified
(41.5000°N, 0.0000°E)
Time: 10:57:10
(UTC+00:00)

Vanguard 2 - Pass Details

Date: 24 June 2019
Orbit: 553 x 2938 km, 32.9° (Epoch: 16 July)

Event Time Altitude Azimuth Distance (km) Brightness Sun altitude
Rises 10:33:48 0° 262° (W) 3,508 10.7 64.1°
Reaches altitude 10° 10:36:02 10° 255° (WSW) 2,789 10.4 64.5°
Maximum altitude 10:42:31 44° 185° (S) 1,851 10.5 65.4°
Drops below altitude 10° 10:53:01 10° 119° (ESE) 4,484 11.9 66.8°
Sets 10:57:39 0° 114° (ESE) 5,866 12.3 67.4°
